Location: Pedholt
(56.0260°N, 10.2097°E)
Time: 05:44:09
(UTC+00:00)

Meteor 1-25 Rocket - Pass Details

Date: 14 July 2020
Orbit: 837 x 890 km, 81.2° (Epoch: 14 August)

Event Time Altitude Azimuth Distance (km) Brightness Sun altitude
Exits shadow 00:47:43 14° 201° (SSW) 2,225 5.7 -10.4°
Maximum altitude 00:52:40 75° 286° (WNW) 877 4.3 -10.2°
Drops below altitude 10° 00:58:16 10° 13° (NNE) 2,468 8.2 -9.9°
Sets 01:00:41 0° 15° (NNE) 3,406 9.5 -9.7°
